Dewpoint
56 56 56 56 55 55 55 55 55 56 56 56 56 56 56 56 56 56 56 56 55 55 55 56 56 56 56 56 56 56 57 53 50 46 47 41 67 69 65 63 61 64 63 58 58 58 54 55 55 57 59 59 58 58 63 63 63 67 62 59 59 56 56 59 57 58 58 58 61 63 63 60 61 64 64 63 63 62 60 58 55 54 53 55 59 60 59 57
56 56 55 56 56 56 56 56 56 56 56 56 56 56 56 56 56 56 56 56 55 55 56 56 56 56 55 56 56 56 55 52 48 42 37 50 65 68 61 64 65 63 64 54 58 54 50 51 54 58 59 58 60 65 62 67 66 63 60 61 55 57 61 63 60 60 60 59 63 63 63 63 61 64 62 62 62 61 59 54 54 54 56 58 60 59 58 56
56 57 57 56 56 56 56 56 56 56 56 56 56 56 56 56 55 55 55 56 55 55 55 55 56 56 56 56 56 57 55 51 48 40 36 68 68 65 68 65 65 66 60 52 57 51 47 49 55 59 60 59 66 61 60 66 66 63 61 60 62 63 63 64 60 62 63 62 62 62 64 64 61 61 61 62 59 60 57 54 55 56 56 58 59 59 57 55
56 56 56 56 56 56 56 56 56 56 56 56 56 55 55 55 55 55 55 55 56 55 55 56 55 56 55 56 56 56 52 50 42 40 49 66 66 67 67 66 65 65 55 52 54 49 44 47 56 59 59 59 61 63 65 65 63 63 62 61 64 63 61 63 63 62 60 63 61 62 60 61 61 60 62 59 57 58 57 53 54 56 56 57 57 56 55 53
56 56 56 56 56 56 56 56 55 55 55 55 55 55 55 56 55 55 55 55 55 55 55 55 56 56 55 56 57 54 52 28 33 50 56 69 70 69 69 67 66 52 51 52 51 46 42 44 55 58 59 61 59 63 62 63 63 63 61 62 62 64 61 63 66 63 62 63 62 62 60 62 61 62 60 57 56 55 54 53 56 57 57 56 56 55 54 53
56 56 56 56 56 56 56 55 55 55 55 55 55 55 55 55 55 55 55 55 55 55 55 55 55 56 56 57 54 52 45 8 25 55 65 69 67 65 69 67 67 47 47 52 46 41 39 44 54 56 57 57 59 61 56 65 63 63 63 63 61 63 61 64 63 64 66 64 61 59 59 61 61 58 57 58 57 56 53 53 55 57 56 57 56 53 52 53
56 56 56 56 56 56 55 55 55 55 55 55 56 55 55 55 55 55 55 54 55 54 55 55 56 56 56 57 52 49 42 33 49 62 66 65 65 64 66 65 67 52 46 48 42 37 37 45 54 55 55 55 56 58 56 66 61 63 62 62 64 64 63 65 62 62 63 64 62 63 59 62 59 56 62 60 58 55 54 54 55 56 56 55 53 51 52 54
56 56 56 55 55 55 55 55 56 56 56 55 55 55 55 55 55 55 55 54 54 55 55 55 55 56 56 52 49 49 40 5 47 61 67 66 59 57 61 47 43 46 46 45 41 36 35 45 52 55 55 59 55 61 57 49 54 62 61 61 61 66 65 62 62 61 61 65 64 63 61 61 58 61 62 58 57 54 54 54 55 56 55 53 52 51 53 54
56 56 56 56 56 55 56 56 56 56 55 55 55 55 55 55 55 55 55 55 54 55 55 55 56 56 57 54 41 29 18 41 48 59 58 47 40 40 46 41 38 47 44 42 40 35 34 42 50 54 58 57 55 52 47 47 54 61 60 61 63 60 63 64 64 62 61 65 64 62 62 61 61 63 62 59 56 54 55 55 54 54 53 51 51 52 54 53
56 56 56 56 56 56 56 56 56 56 55 55 55 55 55 55 55 55 55 54 55 55 55 55 56 56 54 50 45 32 33 38 51 50 42 39 32 38 44 38 38 45 39 36 37 34 33 37 49 55 56 56 55 49 43 48 52 61 60 61 59 58 60 65 64 60 67 66 66 63 61 63 63 62 58 58 56 55 54 54 54 52 52 51 52 52 53 52
56 55 56 56 55 55 55 55 55 55 55 55 55 55 54 54 54 54 54 54 55 55 55 55 56 55 51 46 40 25 30 32 47 44 41 35 29 32 39 40 40 42 34 30 31 31 31 32 46 55 56 52 49 45 45 49 52 55 60 60 58 58 62 67 66 66 66 65 66 65 64 63 65 63 58 56 55 54 54 54 52 52 52 53 53 53 53 53
56 56 56 56 55 55 55 55 55 55 55 55 55 54 54 54 54 54 54 54 54 55 55 56 56 53 49 46 38 25 26 34 48 45 41 39 31 28 35 40 39 38 31 29 29 28 27 30 46 55 51 48 46 42 42 50 53 57 57 57 60 61 62 65 64 64 66 64 67 67 63 61 61 61 61 55 54 55 54 53 51 52 52 53 54 53 54 54
56 56 56 55 55 55 55 56 55 55 55 55 54 54 54 54 54 54 54 54 54 54 55 56 56 53 48 34 28 19 22 35 48 47 47 40 34 33 37 35 36 38 35 32 28 25 26 34 49 55 56 51 43 40 43 50 55 58 58 64 59 61 62 65 65 65 65 65 67 66 56 59 58 62 60 54 54 54 54 53 51 51 53 53 53 52 53 53
55 56 55 55 55 55 56 56 55 55 54 54 54 54 54 54 54 53 54 55 55 55 56 56 55 52 49 42 12 21 27 40 44 44 45 43 39 39 36 34 38 40 37 35 31 27 33 40 50 55 56 52 45 42 37 43 56 59 60 63 60 56 59 63 64 64 63 66 66 65 53 56 61 62 60 56 53 53 52 52 51 51 52 52 53 52 52 53
55 55 55 55 55 55 55 55 55 54 54 54 54 53 54 53 53 54 54 54 55 56 57 58 55 52 45 28 16 29 58 45 41 42 43 37 32 31 37 38 37 36 35 33 31 33 36 39 46 49 51 52 48 44 37 37 49 56 54 56 54 53 57 62 65 64 61 63 66 62 56 57 59 61 61 59 54 54 51 51 51 51 52 52 52 51 52 53
55 55 55 55 55 55 55 55 55 54 54 54 53 53 53 53 54 54 55 56 56 57 57 55 55 46 40 29 31 40 39 40 39 39 37 34 28 27 32 31 31 31 30 30 31 36 36 35 43 49 49 47 45 41 37 37 43 51 54 56 52 50 58 59 63 64 63 63 65 64 57 60 59 60 61 59 54 52 52 51 51 51 52 52 51 51 53 52
56 56 56 55 55 55 55 55 54 55 54 53 53 53 53 54 55 56 56 57 55 56 55 53 42 41 35 20 13 25 33 40 39 37 36 34 30 29 26 28 27 28 27 25 24 26 27 28 41 47 46 47 44 40 37 37 43 50 55 53 53 52 55 53 61 63 63 63 59 61 59 57 55 59 62 61 57 55 54 50 51 52 52 53 52 51 53 53
55 56 56 55 55 55 55 55 54 54 54 53 53 54 53 55 57 57 57 57 55 52 52 52 43 39 30 15 10 22 36 40 38 37 38 37 36 30 26 21 22 21 22 20 21 19 24 25 36 41 45 45 43 38 36 36 43 51 51 55 54 57 52 54 55 59 61 62 58 59 59 58 58 59 61 62 61 60 57 53 52 52 52 52 50 51 53 54
55 55 55 55 55 54 54 54 54 53 53 54 55 55 56 56 56 56 54 52 50 52 44 40 35 24 9 12 26 29 33 39 40 38 35 33 36 31 28 27 21 20 18 17 17 16 23 19 31 39 43 43 41 38 35 35 41 44 54 53 52 50 55 53 56 60 61 58 58 59 56 58 59 58 60 61 60 61 58 55 53 54 53 53 51 51 53 54
55 55 55 55 55 54 54 54 54 53 53 55 54 57 54 52 49 47 52 48 42 32 24 23 22 21 15 18 24 31 38 40 38 37 34 30 32 31 30 29 20 17 15 13 14 13 18 17 29 37 42 43 42 38 35 39 35 39 56 50 52 58 54 57 59 60 60 57 55 58 60 60 59 59 60 61 62 61 58 56 54 53 53 52 50 51 54 55
55 55 55 55 55 54 54 53 53 53 52 52 53 52 39 27 27 25 29 39 39 28 24 25 23 22 25 25 27 26 32 35 37 32 32 32 31 30 30 28 22 12 13 11 12 13 16 17 28 36 41 42 41 39 36 32 31 31 48 49 52 52 52 55 58 58 60 56 54 54 57 61 61 61 59 61 61 59 59 56 55 54 54 54 54 53 54 56
55 55 55 55 54 54 53 53 53 52 51 54 53 48 34 28 31 32 32 27 25 23 23 24 24 24 29 26 28 30 32 31 33 32 31 30 31 28 28 25 20 10 12 10 15 14 17 17 25 35 40 41 35 35 33 30 30 31 37 51 54 50 56 58 58 59 58 58 55 54 58 60 60 61 62 61 62 61 59 57 55 55 55 55 53 54 55 56
55 55 55 55 54 54 53 52 52 52 53 50 45 44 30 31 33 36 34 30 24 18 20 20 16 21 23 27 26 31 29 29 28 30 28 27 25 25 26 23 21 11 9 9 12 18 22 23 26 32 38 38 33 31 29 30 30 30 37 44 43 53 52 52 57 59 58 56 56 56 54 60 61 63 61 63 62 62 61 61 59 57 56 55 53 54 56 56
55 55 55 54 54 53 52 51 50 51 51 48 41 36 34 33 34 34 33 30 20 12 21 20 25 22 24 20 28 29 29 29 30 28 29 27 21 21 20 22 20 12 6 7 12 22 23 23 26 33 36 34 33 32 30 30 30 32 31 40 47 54 57 48 55 59 59 57 60 57 57 57 61 60 62 63 65 66 63 62 60 57 57 57 57 57 57 55
55 54 54 54 54 53 51 49 50 46 45 45 40 38 35 38 40 37 34 25 16 11 18 18 25 25 27 32 29 30 30 29 29 30 28 26 19 23 19 19 18 11 5 4 11 18 18 24 28 31 29 33 34 32 32 32 31 29 27 30 36 46 51 48 56 59 57 56 58 55 51 53 59 59 58 60 61 63 61 61 62 58 57 58 56 56 57 55
55 55 54 54 53 52 49 44 42 38 37 36 34 36 35 35 37 41 36 33 14 19 24 18 24 24 25 26 31 31 30 26 31 31 29 27 31 22 14 15 17 10 8 10 12 15 15 28 31 28 33 34 33 32 30 32 30 28 27 29 31 38 52 49 55 55 53 51 56 56 48 49 59 57 58 61 61 61 62 61 61 59 58 56 58 59 55 55
55 54 54 54 53 51 49 40 42 32 32 33 35 36 36 36 50 41 34 25 12 15 20 19 23 20 23 27 28 30 23 28 31 31 27 32 28 29 24 13 16 20 17 16 16 10 15 26 30 32 32 32 31 31 30 30 29 29 26 28 29 30 43 52 52 53 55 54 59 57 55 51 53 58 58 60 59 59 60 60 60 59 58 55 56 57 56 54
54 54 54 53 52 51 50 51 41 34 32 35 36 35 37 46 47 41 35 17 11 16 16 13 18 22 20 25 27 23 28 30 26 28 29 28 30 28 24 20 18 21 19 12 10 9 14 26 27 28 29 28 29 30 30 29 29 29 24 25 26 29 39 45 51 52 49 47 51 53 53 51 48 53 60 61 60 61 60 59 60 61 58 56 57 56 54 53
54 54 53 53 52 51 52 49 45 37 35 35 36 36 36 47 39 35 32 18 15 13 21 20 22 21 22 25 26 24 27 28 20 27 30 29 28 26 20 25 19 23 27 24 19 23 26 27 26 25 25 22 26 29 32 30 29 30 29 26 26 30 39 42 42 46 48 45 45 48 52 48 49 57 58 61 59 58 58 60 60 57 59 57 56 56 54 54
54 53 53 52 51 51 49 50 45 38 37 37 37 42 39 39 37 30 23 12 14 11 15 19 20 19 21 21 20 20 24 22 28 28 28 25 25 28 25 25 20 26 27 28 27 19 23 31 31 23 20 19 22 25 29 27 29 30 26 25 25 33 36 38 42 53 52 44 44 46 51 48 47 53 55 56 56 57 59 60 60 59 58 57 57 55 53 53
53 52 52 52 51 47 46 42 40 39 39 43 40 40 40 38 34 27 13 8 13 13 15 16 17 21 19 19 15 16 20 20 26 27 24 26 23 22 20 22 24 18 25 25 21 22 21 23 24 24 24 20 19 19 23 24 27 28 27 26 29 36 37 41 42 44 41 39 40 46 47 47 42 50 55 57 57 58 59 59 59 59 59 58 57 55 53 55
51 51 52 52 51 51 37 33 42 40 43 42 40 39 38 34 41 15 8 15 14 10 8 12 19 19 20 19 18 14 17 19 23 22 23 21 19 19 22 21 24 22 22 21 16 19 22 21 21 21 27 22 22 20 18 22 23 24 27 29 29 34 40 40 40 39 37 35 35 38 52 53 46 49 51 55 55 56 58 58 58 59 59 58 56 56 54 53
51 50 50 51 52 49 44 40 45 49 45 40 40 38 38 33 18 14 10 10 10 8 7 10 15 15 14 15 16 13 20 19 21 21 23 19 20 16 18 18 19 18 17 18 14 13 15 19 19 17 17 21 19 16 15 14 17 21 26 28 30 33 36 37 38 38 36 35 37 39 43 42 49 52 52 54 56 56 57 57 60 60 59 57 57 56 54 54
50 50 51 51 51 49 43 54 51 48 41 42 41 36 33 25 11 20 7 8 7 9 7 8 10 11 12 13 12 13 13 19 18 20 22 21 19 17 13 17 19 15 16 18 12 10 11 11 13 15 13 16 15 14 11 10 12 15 22 25 30 33 33 37 36 38 36 38 37 41 42 40 39 52 54 54 56 56 57 59 60 59 58 58 58 55 54 54
49 50 53 56 53 51 48 46 50 49 44 37 36 33 26 17 13 13 11 7 8 8 8 8 9 9 9 8 14 15 15 13 13 17 18 19 17 19 19 16 20 19 17 14 10 14 11 10 12 14 12 14 12 11 12 11 10 11 19 25 27 30 35 34 35 37 36 38 37 44 39 48 53 58 61 57 51 57 57 59 61 62 62 60 57 55 54 54
49 52 53 54 48 48 47 46 49 47 42 36 31 25 13 17 12 10 8 10 9 6 6 9 7 6 6 6 13 12 14 13 12 14 15 15 11 17 19 16 16 16 14 13 18 12 13 10 11 12 11 12 12 11 9 11 11 11 15 21 25 28 32 34 33 33 37 38 39 52 44 47 50 55 53 53 54 55 59 61 61 62 62 61 57 51 54 55
51 51 43 41 40 41 46 47 46 46 42 34 28 18 16 12 11 12 20 11 10 9 7 9 7 8 8 6 11 8 8 9 10 13 13 11 12 14 15 17 17 15 16 15 15 13 13 10 12 13 12 12 12 11 8 9 10 10 12 16 23 25 28 32 33 42 33 33 38 41 40 42 43 49 50 52 54 55 55 54 56 62 62 61 59 57 58 57
46 36 38 36 38 42 47 49 45 44 39 30 24 24 16 13 13 13 11 13 8 8 9 11 10 8 10 9 3 7 7 8 10 12 12 13 15 15 15 15 16 16 16 16 16 15 14 12 10 10 11 12 12 10 6 7 9 9 9 12 15 23 27 30 33 33 35 32 34 41 36 38 41 45 48 49 52 53 55 55 55 57 62 61 57 55 57 56
47 38 31 35 37 39 45 49 45 42 34 31 20 22 9 13 13 13 14 13 12 10 11 9 8 9 9 8 7 4 6 6 9 9 14 12 14 15 12 12 13 13 15 15 15 14 13 12 12 13 11 10 10 7 8 3 6 8 10 11 12 17 21 25 30 34 33 30 32 33 34 38 41 53 48 50 52 51 54 55 55 58 60 60 59 59 57 57
37 29 29 35 36 40 52 46 39 34 27 24 19 17 16 15 13 14 14 14 9 15 13 8 10 10 11 11 7 7 6 12 10 7 13 12 10 15 11 14 11 15 15 15 13 11 13 20 13 12 11 11 11 9 5 5 3 4 6 10 16 14 15 23 26 28 29 30 32 34 32 45 52 51 51 52 52 52 52 53 57 58 59 62 66 66 61 60
31 28 32 36 32 46 45 41 30 29 25 20 17 15 15 17 14 15 14 13 13 10 13 13 7 11 10 10 8 8 7 9 10 11 14 15 10 15 15 17 15 15 13 14 14 15 18 12 12 15 13 13 11 11 6 3 5 4 3 8 13 13 12 17 23 24 25 28 29 31 33 47 53 61 50 52 53 55 54 55 59 59 59 61 63 65 63 61
36 25 30 34 34 39 35 27 24 20 17 17 15 16 19 25 16 14 14 14 14 11 11 14 16 14 12 11 12 8 11 9 10 13 10 12 12 16 16 18 19 17 15 16 13 12 22 22 15 14 14 13 11 10 9 5 7 8 5 5 6 7 14 16 18 21 23 24 27 31 31 44 52 54 55 57 56 58 55 53 57 57 58 60 61 62 62 63
30 28 35 35 34 32 29 26 29 24 20 17 15 14 15 16 16 11 12 14 11 14 15 15 15 17 16 16 12 9 11 11 11 11 9 14 16 18 18 18 18 16 14 14 14 21 30 21 20 17 19 15 14 7 11 7 12 15 12 9 4 3 9 15 16 19 24 27 25 24 30 41 51 58 58 59 60 60 61 60 62 60 63 64 64 63 62 62
31 28 30 31 33 31 25 25 19 17 18 18 18 16 15 18 18 16 17 16 18 16 17 16 15 15 19 17 15 15 15 19 13 13 13 15 16 18 17 18 17 17 17 24 25 22 18 27 23 19 20 19 14 18 16 15 14 14 13 12 10 7 7 9 13 22 20 18 22 26 25 44 54 54 59 58 58 58 57 58 61 62 63 63 64 65 67 67
32 29 28 27 30 27 23 24 22 19 19 19 18 17 15 16 18 19 19 18 17 17 17 18 18 17 16 17 15 17 14 13 16 15 14 14 15 17 17 18 16 17 20 31 45 24 21 24 27 20 20 18 18 20 20 17 15 13 15 15 15 11 13 14 14 21 18 26 31 25 27 49 51 56 56 58 57 58 57 57 57 59 61 61 63 64 66 67
28 29 21 24 22 22 24 26 21 19 21 23 20 17 15 14 14 16 18 19 18 19 18 19 17 17 17 17 17 16 16 16 15 18 17 16 16 17 17 16 15 17 34 42 38 25 23 25 29 30 26 22 23 31 25 24 18 13 12 12 10 6 8 19 22 22 17 24 28 32 32 49 50 51 55 56 56 56 57 57 57 58 59 63 64 64 65 66
35 26 24 25 22 20 20 17 18 17 20 21 28 18 18 17 15 14 8 16 18 19 19 19 18 18 19 18 16 16 14 14 19 19 18 15 15 16 16 15 15 26 46 38 36 22 29 24 25 31 28 27 22 24 18 20 18 14 11 8 12 16 17 21 18 19 33 26 21 30 41 30 47 49 52 54 55 55 57 58 57 59 60 60 62 64 65 64
29 29 30 34 26 21 20 17 18 17 20 17 23 19 19 17 16 20 15 12 17 16 16 21 17 18 19 20 22 20 20 20 21 17 18 18 18 16 15 15 13 30 33 19 19 22 23 22 20 20 21 20 20 19 16 17 18 18 16 16 15 18 23 22 22 20 27 25 27 37 41 39 41 44 53 54 55 55 55 57 57 60 61 63 64 63 62 62
32 34 27 28 24 26 24 21 19 18 18 18 24 19 18 17 19 18 19 19 16 19 15 24 21 19 19 21 22 26 32 27 23 27 29 21 21 18 17 17 16 16 13 16 19 31 30 21 21 21 23 21 19 18 18 18 19 20 21 21 22 21 19 21 22 21 21 29 32 37 40 39 39 49 55 60 58 55 56 58 60 61 61 62 63 64 62 63
31 45 30 25 29 28 27 23 20 19 21 28 27 22 20 20 20 20 18 18 23 20 16 21 21 19 21 23 29 27 30 37 36 30 25 26 21 22 22 21 19 18 15 17 18 30 25 24 24 22 24 21 19 19 19 18 18 20 17 20 21 21 21 22 23 26 29 31 35 34 37 41 54 56 58 59 58 56 56 57 59 60 61 61 61 61 61 62
50 52 53 45 26 26 27 22 21 25 24 24 23 24 21 21 23 23 21 19 21 25 21 23 22 23 21 24 26 26 27 31 30 27 25 23 26 24 23 27 19 20 19 20 22 25 23 23 23 23 23 20 19 19 18 16 16 18 21 24 27 25 24 27 28 34 37 41 39 39 38 43 54 58 58 57 58 56 57 58 59 60 60 62 61 61 62 63
52 50 51 45 38 35 24 22 24 22 21 25 26 24 24 22 22 20 23 18 18 20 23 21 24 23 25 25 29 28 27 26 25 26 25 23 21 20 19 20 20 23 22 23 26 22 27 25 25 22 20 20 17 17 17 19 18 17 27 34 34 31 31 32 40 45 43 40 40 38 40 50 55 56 56 54 55 55 55 56 59 60 62 61 62 62 62 64